Home > Weather > Malmö > Past weeks

Flag for Sweden Weather for the Past 2 Weeks in Malmö, Sweden

Now
39 °F

Mostly cloudy.


Feels Like: 30 °F
Forecast: 31 / 37 °F
Wind: 18 mph from West

Location: Malmo / Sturup

Current Time: Feb 10, 2016 at 12:57:45 PM

Latest Report: Feb 10, 2016 at 12:20 PM


Visibility: N/A

Pressure: 29.12 "Hg

Humidity: 93%

Dew point: 37 °F

Location of MalmöLocation

Historic Weather in Malmö — Graph

°F

Malmö Temperature Yesterday

Maximum temperature yesterday: 43 °F (at 12:50 PM)
Minimum temperature yesterday: 37 °F (at 5:50 PM)
Average temperature yesterday: 41 °F

High & Low Weather Summary for the Past Weeks

 TemperatureHumidityPressure
High46 °F (Jan 27, 2:20 PM)100% (Jan 26, 3:50 PM)30.09 "Hg (Jan 26, 3:50 PM)
Low30 °F (Feb 5, 3:20 AM)61% (Jan 28, 1:20 PM)28.77 "Hg (Feb 10, 3:20 AM)
Average40 °F88%29.57 "Hg
* Reported Jan 26 11:20 AM — Feb 10 11:20 AM, Malmö, Weather by CustomWeather, © 2016

Note: Actual official high and low records may vary slightly from our data, if they occured in-between our weather recording intervals... More about our weather records

Advertising

Malmö Weather History for the Previous 24 Hours

 ConditionsComfort  
Time TempWeatherWind HumidityBarometerVisibility
11:20 AM
Wed, Feb 10
39 °FDrizzle. Low clouds.17 mph93%29.09 "HgN/A
10:50 AM37 °FLow clouds.18 mph93%29.06 "HgN/A
10:20 AM39 °FLow clouds.20 mph93%29.06 "HgN/A
9:50 AM37 °FMostly cloudy.17 mph93%29.03 "HgN/A
9:20 AM37 °FLow clouds.23 mph93%29.00 "HgN/A
8:50 AM37 °FMostly cloudy.21 mph93%28.97 "HgN/A
8:20 AM36 °FLight rain. Fog.20 mph93%28.94 "Hg4 mi
7:50 AM36 °FFog.23 mph93%28.91 "Hg2 mi
7:20 AM36 °FLow clouds.21 mph93%28.88 "HgN/A
6:50 AM36 °FFog.18 mph93%28.82 "Hg2 mi
6:20 AM36 °FLow clouds.21 mph100%28.82 "HgN/A
5:50 AM41 °FDrizzle. Overcast.10 mph93%28.80 "Hg6 mi
5:20 AM41 °FLight rain. Mostly cloudy.14 mph93%28.77 "HgN/A
4:50 AM41 °FRain. Fog.14 mph93%28.77 "Hg4 mi
4:20 AM43 °FLight rain. Mostly cloudy.14 mph93%28.77 "HgN/A
3:50 AM43 °FMostly cloudy.14 mph93%28.77 "HgN/A
3:20 AM41 °FPassing clouds.14 mph93%28.77 "HgN/A
2:20 AM41 °FPassing clouds.14 mph100%28.80 "HgN/A
1:50 AM41 °FRain. Low clouds.13 mph100%28.80 "Hg6 mi
1:20 AM41 °FLight rain. Passing clouds.16 mph93%28.82 "Hg6 mi
12:50 AM39 °FLight rain. Passing clouds.16 mph100%28.82 "Hg3 mi
12:20 AM39 °FRain. Passing clouds.17 mph93%28.88 "Hg3 mi
11:50 PM
Tue, Feb 9
39 °FRain. Passing clouds.14 mph100%28.91 "Hg3 mi
11:20 PM39 °FLight rain. Partly cloudy.12 mph93%28.91 "Hg3 mi
10:20 PM41 °FPartly cloudy.9 mph81%28.97 "HgN/A
9:50 PM41 °FPassing clouds.9 mph81%29.00 "HgN/A
9:20 PM41 °FClear.8 mph81%29.00 "Hg10 mi
8:50 PM41 °FPassing clouds.8 mph81%29.03 "HgN/A
8:20 PM41 °FPassing clouds.9 mph81%29.06 "HgN/A
7:50 PM39 °FLight rain. Partly cloudy.8 mph87%29.06 "HgN/A
7:20 PM39 °FClear.7 mph87%29.09 "Hg10 mi
6:50 PM39 °FPassing clouds.7 mph87%29.09 "HgN/A
6:20 PM37 °FPassing clouds.6 mph93%29.12 "HgN/A
5:50 PM37 °FClear.8 mph87%29.12 "Hg10 mi
4:50 PM39 °FScattered clouds.9 mph87%29.12 "HgN/A
4:20 PM41 °FPassing clouds.10 mph81%29.12 "HgN/A
3:20 PM41 °FPartly sunny.17 mph81%29.15 "HgN/A
2:50 PM43 °FScattered clouds.18 mph81%29.15 "HgN/A
2:20 PM41 °FPartly sunny.20 mph87%29.15 "HgN/A
1:50 PM43 °FPartly sunny.17 mph81%29.15 "HgN/A
1:20 PM43 °FPartly sunny.21 mph76%29.15 "HgN/A
12:50 PM43 °FScattered clouds.23 mph81%29.15 "HgN/A
12:20 PM41 °FBroken clouds.23 mph93%29.15 "HgN/A
Weather by CustomWeather, © 2016

See weather overviewHow to use our weather pages